LA6JKA Spydeberg NO current weather conditions

sailwx.info

Wind from 230 at 4 knots gusting 8

Air temperature 18.3° C
Dewpoint 11.2° C

Last reported at 2019-Sep-20 16:01 UTC.
Time now 2019-Sep-20 16:32 UTC

Location: N 59°37' E 011°06'.
View on Google Maps.

See reports from other nearby stations

  
Tides and Currents Weather Stations Pressure Air Temp Water Temp Dewpoint Dewpoint Depression Visibility Wind Speed Wind Dir Waves Ship Positions
date/time (UTC)wind fromknots sea level pressurealtimeterstation pressurevisibilityair tempwater tempwave heightnotes
2019-Sep-20 16:01 230 4 gusting 8 18.3
2019-Sep-20 15:46 229 6 gusting 9 19.4
2019-Sep-20 15:31 242 3 gusting 8 20.6
2019-Sep-20 15:16 194 1 gusting 10 20.6
2019-Sep-20 15:02 223 5 gusting 8 20.6
2019-Sep-20 14:46 244 4 gusting 10 20.6
2019-Sep-20 14:31 233 5 gusting 9 20.6
2019-Sep-20 14:16 234 5 gusting 10 20.6
2019-Sep-20 14:01 203 4 gusting 10 20.6
2019-Sep-20 13:45 258 4 gusting 11 20.0
2019-Sep-20 13:31 203 4 gusting 9 20.0
2019-Sep-20 13:15 198 5 gusting 9 19.4
2019-Sep-20 13:00 197 6 gusting 9 19.4
2019-Sep-20 12:45 209 2 gusting 7 19.4
2019-Sep-20 12:30 234 6 gusting 11 18.9
2019-Sep-20 12:16 175 4 gusting 11 18.3
2019-Sep-20 12:00 169 6 gusting 11 17.8
2019-Sep-20 11:45 202 6 gusting 12 17.8
2019-Sep-20 11:30 215 3 gusting 8 17.8
2019-Sep-20 11:15 159 5 gusting 9 17.2
2019-Sep-20 11:00 277 6 gusting 10 16.7
2019-Sep-20 10:45 221 2 gusting 8 16.7
2019-Sep-20 10:32 239 6 gusting 9 16.1
2019-Sep-20 10:17 155 3 gusting 7 15.0
2019-Sep-20 10:02 202 1 gusting 8 15.0
2019-Sep-20 09:46 163 3 gusting 6 15.0
2019-Sep-20 09:32 170 2 gusting 6 13.9
2019-Sep-20 09:16 166 1 gusting 4 12.8
2019-Sep-20 09:01 229 1 gusting 4 11.7
2019-Sep-20 08:45 169 0 gusting 3 11.1
2019-Sep-20 08:31 158 0 gusting 4 9.4
2019-Sep-20 08:15 190 0 gusting 2 8.3
2019-Sep-20 08:00 215 8.3
2019-Sep-20 07:45 193 7.8
2019-Sep-20 07:30 080 7.2
2019-Sep-20 07:15 080 7.2
2019-Sep-20 07:00 079 6.7
2019-Sep-20 06:45 079 6.1
2019-Sep-20 06:30 079 6.1
2019-Sep-20 06:15 078 0 gusting 1 5.6
2019-Sep-20 06:00 350 5.6
2019-Sep-20 05:45 350 5.0
2019-Sep-20 05:30 350 5.0
2019-Sep-20 05:15 302 5.0
2019-Sep-20 05:00 302 5.6
2019-Sep-20 04:45 302 5.6
2019-Sep-20 04:31 302 5.6
2019-Sep-20 04:16 302 6.1
2019-Sep-20 04:01 302 6.1
2019-Sep-20 03:46 302 6.1
2019-Sep-20 03:31 302 6.1
2019-Sep-20 03:16 236 6.1
2019-Sep-20 03:01 236 6.7
2019-Sep-20 02:46 236 6.7
2019-Sep-20 02:31 236 6.7
2019-Sep-20 02:16 236 6.7
2019-Sep-20 02:03 236 6.7
2019-Sep-20 01:46 236 6.7
2019-Sep-20 01:31 236 6.7
2019-Sep-20 01:16 236 6.7
2019-Sep-20 01:01 240 6.7
2019-Sep-20 00:46 240 6.7
2019-Sep-20 00:31 240 6.1
2019-Sep-20 00:15 240 6.1
2019-Sep-20 00:01 240 6.1
2019-Sep-19 23:46 240 6.1
2019-Sep-19 23:30 240 6.1
2019-Sep-19 23:16 240 6.1
2019-Sep-19 23:01 240 6.1
2019-Sep-19 22:45 240 6.1
2019-Sep-19 22:30 240 6.1
2019-Sep-19 22:15 240 5.6
2019-Sep-19 22:00 240 5.6
2019-Sep-19 21:45 240 5.6
2019-Sep-19 21:30 240 5.6
2019-Sep-19 21:16 240 5.6
2019-Sep-19 21:00 240 6.1
2019-Sep-19 20:45 240 6.1
2019-Sep-19 20:30 240 6.1
2019-Sep-19 20:15 240 6.1
2019-Sep-19 20:00 240 6.1
2019-Sep-19 19:45 240 6.1
2019-Sep-19 19:30 240 6.1
2019-Sep-19 19:15 240 6.7
2019-Sep-19 19:00 240 6.7
2019-Sep-19 18:45 240 7.2
2019-Sep-19 18:30 240 7.2
2019-Sep-19 18:15 239 7.8
2019-Sep-19 18:00 239 8.3
2019-Sep-19 17:45 239 8.9
2019-Sep-19 17:30 239 9.4
2019-Sep-19 17:15 239 10.0
2019-Sep-19 17:00 239 10.6
2019-Sep-19 16:45 239 11.1
2019-Sep-19 16:30 240 11.7
2019-Sep-19 16:15 273 12.2
2019-Sep-19 16:00 270 1 gusting 4 12.2
2019-Sep-19 15:45 009 0 gusting 2 12.8
2019-Sep-19 15:30 310 0 gusting 2 12.2
2019-Sep-19 15:15 311 1 gusting 3 12.2
2019-Sep-19 15:00 227 0 gusting 4 12.2
2019-Sep-19 14:45 281 1 gusting 5 12.8
2019-Sep-19 14:30 313 0 gusting 5 12.2
2019-Sep-19 14:15 221 1 gusting 6 12.8
2019-Sep-19 14:01 298 1 gusting 3 13.3
2019-Sep-19 13:46 263 1 gusting 6 12.8
2019-Sep-19 13:31 309 1 gusting 6 13.3
2019-Sep-19 13:16 247 1 gusting 6 13.3
2019-Sep-19 13:02 309 1 gusting 5 12.8
2019-Sep-19 12:46 245 12.8
2019-Sep-19 12:32 333 1 gusting 7 12.8
2019-Sep-19 12:17 268 1 gusting 4 12.8
2019-Sep-19 12:01 331 2 gusting 7 12.8
2019-Sep-19 11:46 207 12.8
2019-Sep-19 11:32 286 2 gusting 5 12.8
2019-Sep-19 11:16 254 1 gusting 4 12.2
2019-Sep-19 11:01 325 2 gusting 6 12.2
2019-Sep-19 10:46 341 0 gusting 5 11.7
2019-Sep-19 10:31 350 1 gusting 6 11.1
2019-Sep-19 10:16 330 3 gusting 6 11.1
2019-Sep-19 10:01 298 0 gusting 4 11.1
2019-Sep-19 09:46 324 3 gusting 5 11.1
2019-Sep-19 09:32 316 3 gusting 8 10.6
2019-Sep-19 09:15 336 2 gusting 6 10.6
2019-Sep-19 09:00 329 3 gusting 7 10.0
2019-Sep-19 08:46 334 2 gusting 7 10.0
2019-Sep-19 08:31 330 4 gusting 8 10.0
2019-Sep-19 08:16 331 4 gusting 9 10.0
2019-Sep-19 08:00 340 2 gusting 4 9.4
2019-Sep-19 07:45 355 2 gusting 5 8.9
2019-Sep-19 07:30 005 7.2
2019-Sep-19 07:15 005 5.6
2019-Sep-19 07:00 005 5.0
2019-Sep-19 06:45 005 4.4
2019-Sep-19 06:30 355 3.9
2019-Sep-19 06:15 340 1 gusting 3 2.8
2019-Sep-19 06:00 022 2.2
2019-Sep-19 05:45 022 1.7
2019-Sep-19 05:30 022 2.2
2019-Sep-19 05:16 032 2.2
2019-Sep-19 05:01 327 2.2
2019-Sep-19 04:46 327 2.2
2019-Sep-19 04:32 327 2.8
2019-Sep-19 04:17 327 2.8
2019-Sep-19 04:01 327 3.3
2019-Sep-19 03:46 327 3.3
2019-Sep-19 03:31 327 3.3
2019-Sep-19 03:16 320 3.3
2019-Sep-19 03:01 320 2.8
2019-Sep-19 02:46 320 3.3
2019-Sep-19 02:30 320 3.3
2019-Sep-19 02:16 013 3.3
2019-Sep-19 02:01 013 3.9
2019-Sep-19 01:46 342 3.9
2019-Sep-19 01:31 320 3.9
2019-Sep-19 01:16 355 1 gusting 2 3.9
2019-Sep-19 01:01 349 4.4
2019-Sep-19 00:45 019 0 gusting 2 5.0
2019-Sep-19 00:30 327 5.0
2019-Sep-19 00:15 335 6.1
2019-Sep-19 00:00 319 2 gusting 4 6.7
2019-Sep-18 23:45 360 2 gusting 8 7.2
2019-Sep-18 23:30 029 3 gusting 8 7.2
2019-Sep-18 23:15 011 3 gusting 8 7.2
2019-Sep-18 23:00 333 2 gusting 6 7.2
2019-Sep-18 22:32 315 3 gusting 7 7.8
2019-Sep-18 22:17 329 4 gusting 8 7.2
2019-Sep-18 22:01 336 2 gusting 6 6.1
2019-Sep-18 21:46 195 6.1
2019-Sep-18 21:32 341 7.2
2019-Sep-18 21:16 346 7.8
2019-Sep-18 21:01 321 0 gusting 4 8.3
2019-Sep-18 20:46 350 3 gusting 9 8.9
2019-Sep-18 20:31 344 6 gusting 10 8.9
2019-Sep-18 20:16 340 3 gusting 6 8.3
2019-Sep-18 20:01 350 2 gusting 6 8.9
2019-Sep-18 19:46 345 3 gusting 8 8.9
2019-Sep-18 19:30 360 3 gusting 7 9.4
2019-Sep-18 19:15 013 3 gusting 6 9.4
2019-Sep-18 19:01 010 2 gusting 5 8.3
2019-Sep-18 18:46 346 7.8
2019-Sep-18 18:31 338 8.3
2019-Sep-18 18:16 338 8.9
2019-Sep-18 18:00 315 0 gusting 2 9.4
2019-Sep-18 17:45 328 10.6
2019-Sep-18 17:31 321 11.1
2019-Sep-18 17:15 315 0 gusting 2 11.7
2019-Sep-18 17:00 348 12.8
2019-Sep-18 16:45 348 13.9
2019-Sep-18 16:30 348 0 gusting 1 14.4
2019-Sep-18 16:15 338 0 gusting 4 15.0
2019-Sep-18 16:00 344 2 gusting 8 15.0